North Platte, NE

9:00 PM CDT on July 23, 2017 (GMT -0500)
North Platte Regional-Bird

Weather History for KLBF - July, 2012

Change the Weather History Date:

Wednesday, July 18, 2012

  Actual Average Record
Temperature  
Mean Temperature 80 °F 75 °F  
Max Temperature 100 °F 89 °F 103 °F (1936)
Min Temperature 59 °F 61 °F 48 °F (1972)
Degree Days  
Heating Degree Days 0 0  
Month to date heating degree days 0 0  
Since 1 June heating degree days 6 51  
Since 1 July heating degree days 0 0  
Cooling Degree Days 15 10  
Month to date cooling degree days 268 166  
Year to date cooling degree days 669 332  
Since 1 June cooling degree days 590 304  
Growing Degree Days 30 (Base 50)    
Moisture  
Dew Point 59 °F    
Average Humidity 57    
Maximum Humidity 90    
Minimum Humidity 24    
Precipitation  
Precipitation 0.11 in 0.10 in 1.75 in (1958)
Month to date precipitation 0.42 1.72  
Year to date precipitation 7.88 12.58  
Snow  
Snow 0.00 in 0.00 in 0.00 in (2002)
Month to date snowfall 0.0 0.0  
Since 1 June snowfall 0.0 0.0  
Since 1 July snowfall 0.0 0.0  
Snow Depth 0.00 in    
Sea Level Pressure  
Sea Level Pressure 29.88 in    
Wind  
Wind Speed 7 mph (NNE)    
Max Wind Speed 28 mph    
Max Gust Speed 35 mph    
Visibility 10 miles    
Events Rain , Thunderstorm    
T = Trace of Precipitation, MM = Missing Value Source: NWS Daily Summary

Daily Weather History Graph

Daily Weather History Graph

Search for Another Location

Airport or City:

Trip Planner

Search our weather history database for the weather conditions in past years. The results will help you decide how hot, cold, wet, or windy it might be!

Date:

Astronomy

Jul. 18, 2012 Rise Set
Actual Time 6:26 AM CDT 9:11 PM CDT
Civil Twilight 5:53 AM CDT 9:43 PM CDT
Nautical Twilight 5:13 AM CDT 10:24 PM CDT
Astronomical Twilight 4:26 AM CDT 11:10 PM CDT
Moon 6:02 AM CDT (7/18) 8:41 PM CDT (7/18)
Length of Visible Light 15h 50m
Length of Day
14h 45m
Waning Crescent, 0% of the Moon is Illuminated
Jul 18
Waning Crescent
Jul 18
New
Jul 26
First Quarter
Aug 1
Full
Aug 9
Last Quarter

Hourly Weather History & Observations

Time (CDT) Temp. Heat Index Dew Point Humidity Pressure Visibility Wind Dir Wind Speed Gust Speed Precip Events Conditions
12:53 AM 66.0 °F - 57.9 °F 75% 29.81 in 10.0 mi West 4.6 mph - N/A   Clear
1:53 AM 64.0 °F - 57.9 °F 80% 29.81 in 10.0 mi NNW 4.6 mph - N/A   Clear
2:53 AM 63.0 °F - 57.9 °F 84% 29.80 in 10.0 mi North 3.5 mph - N/A   Clear
3:53 AM 62.1 °F - 57.9 °F 86% 29.81 in 10.0 mi NW 3.5 mph - N/A   Clear
4:53 AM 61.0 °F - 57.9 °F 90% 29.82 in 10.0 mi NW 5.8 mph - N/A   Clear
5:53 AM 60.1 °F - 57.0 °F 90% 29.84 in 10.0 mi WNW 4.6 mph - N/A   Clear
6:53 AM 62.1 °F - 57.9 °F 86% 29.89 in 10.0 mi NNW 6.9 mph - N/A   Clear
7:53 AM 66.9 °F - 61.0 °F 81% 29.91 in 10.0 mi NW 5.8 mph - N/A   Clear
8:53 AM 73.9 °F - 61.0 °F 64% 29.91 in 10.0 mi Calm Calm - N/A   Clear
9:53 AM 84.0 °F 83.8 °F 59.0 °F 43% 29.88 in 10.0 mi NNE 4.6 mph - N/A   Clear
10:53 AM 88.0 °F 87.6 °F 60.1 °F 39% 29.89 in 10.0 mi Calm Calm - N/A   Clear
11:53 AM 93.0 °F 93.8 °F 62.1 °F 36% 29.89 in 10.0 mi Variable 4.6 mph - N/A   Clear
12:53 PM 95.0 °F 95.6 °F 62.1 °F 33% 29.88 in 10.0 mi SSW 4.6 mph - N/A   Clear
1:53 PM 98.6 °F 99.4 °F 60.8 °F 29% 29.96 in 10.0 mi Variable 4.6 mph - N/A   Clear
2:53 PM 100.0 °F 101.2 °F 61.0 °F 28% 29.86 in 10.0 mi South 6.9 mph - N/A   Clear
3:53 PM 99.0 °F 99.5 °F 61.0 °F 28% 29.85 in 10.0 mi ESE 9.2 mph - N/A   Clear
4:53 PM 100.0 °F 99.7 °F 57.9 °F 25% 29.84 in 10.0 mi Calm Calm - N/A   Clear
5:35 PM 96.8 °F 96.2 °F 59.0 °F 28% 29.94 in 10.0 mi East 5.8 mph - N/A Thunderstorm Clear
5:53 PM 89.1 °F - 48.9 °F 25% 29.86 in 10.0 mi North 26.5 mph 33.4 mph N/A Thunderstorm Scattered Clouds
6:06 PM 86.0 °F - 51.8 °F 31% 29.97 in 10.0 mi North 18.4 mph 29.9 mph 0.00 in Rain , Thunderstorm Light Thunderstorms and Rain
6:36 PM 75.2 °F - 60.8 °F 61% 29.99 in 9.0 mi Variable 5.8 mph - 0.04 in Rain , Thunderstorm Light Thunderstorms and Rain
6:53 PM 72.0 °F - 61.0 °F 68% 29.90 in 10.0 mi ESE 24.2 mph 33.4 mph 0.11 in Thunderstorm Mostly Cloudy
7:10 PM 73.4 °F - 60.8 °F 65% 29.95 in 10.0 mi East 8.1 mph - N/A   Clear
7:53 PM 82.0 °F 82.1 °F 59.0 °F 45% 29.86 in 10.0 mi ENE 8.1 mph - N/A   Clear
8:53 PM 77.0 °F - 61.0 °F 58% 29.90 in 10.0 mi SSE 8.1 mph 18.4 mph N/A   Clear
9:53 PM 70.0 °F - 63.0 °F 78% 29.92 in 10.0 mi East 4.6 mph - N/A   Clear
10:53 PM 68.0 °F - 61.0 °F 78% 29.93 in 10.0 mi ESE 6.9 mph - N/A   Clear
11:53 PM 64.9 °F - 61.0 °F 87% 29.94 in 10.0 mi NE 4.6 mph - N/A   Clear